Location: Piedmont
(45.8748°N, 74.1254°W)
Time: 13:44:17
(UTC+00:00)

N. Korean satellite - Pass Details

Date: 04 December 2021
Orbit: 446 x 491 km, 97.3° (Epoch: 18 January)

Event Time Altitude Azimuth Distance (km) Brightness Sun altitude
Rises 21:36:17 0° 178° (S) 2,533 10.6 -4.4°
Reaches altitude 10° 21:38:24 10° 184° (S) 1,650 9.7 -4.8°
Maximum altitude 21:41:51 49° 260° (W) 619 7.7 -5.3°
Drops below altitude 10° 21:45:16 10° 337° (NNW) 1,636 9.2 -5.8°
Sets 21:47:22 0° 343° (NNW) 2,509 10.1 -6.2°
